Retour au catalogue

NOAA 16 DEB

ActifPO
NORAD 41425·DEBRIS·🇺🇸 United States

Lancé Sep 21, 2000 depuis Vandenberg Space Force Base

Loading…

Prochains Passages (prochaines 24 heures)

TLE

FraisSource: Space-Track

Époque: Sep 14, 2026, 13:40 UTC

1 41425U 00055LE  26257.56999888  .00006171  00000-0  12142-2 0  9997
2 41425  98.9547 158.0112 0034545 105.3714 255.1307 14.62610387554634

Suivez NOAA 16 DEB en temps réel avec AllMySat

Download on the App Store